Location: Guadanolo
(41.9167°N, 12.9333°E)
Time: 18:19:11
(UTC+00:00)

Cosmos 1707 - Pass Details

Date: 16 September 2019
Orbit: 517 x 530 km, 82.5° (Epoch: 23 October)

Event Time Altitude Azimuth Distance (km) Brightness Sun altitude
Rises 18:52:37 0° 353° (N) 2,679 6.7 -18.2°
Reaches altitude 10° 18:54:46 10° 354° (N) 1,785 5.8 -18.6°
Maximum altitude 18:58:42 81° 82° (E) 542 2.6 -19.3°
Enters shadow 19:00:01 40° 165° (SSE) 789 3.3 -19.5°
